Date String (YYYY-MM-DD hh:mm:ss) UTC,Instrument flags,Ambient pressure (hPa),Sample flow (lpm),Bypass flow (lpm),Sample temperature (°C),Ambient temperature (°C),ASC tube jacket temperature (°C),LED temperature (°C),Box temperature (°C),Sample RH (%),Span deviation,Mass concentration (μg/m³),Mass concentration (μg/m³),Mass concentration (μg/m³)
DateTimeUTC,F1_M11,P_M11,Q1_M11,Q2_M11,T1_M11,T2_M11,T3_M11,T4_M11,T5_M11,U1_M11,ZSPAN_M11,X0_M11,X2_M11,X1_M11
2021-12-18 17:00:00,,0830.7,5.00,0.00,23.4,22.6,00.0,32.3,25.2,08.5,0000.0,0009.18,0004.56,0004.03
2021-12-18 17:01:00,,0830.7,5.01,0.00,23.4,22.6,00.0,32.3,25.2,08.5,0000.0,0009.24,0004.56,0004.01
2021-12-18 17:02:00,,0830.7,4.99,0.00,23.4,22.6,00.0,32.3,25.2,08.5,0000.0,0009.18,0004.54,0004.00
2021-12-18 17:03:00,,0830.8,4.98,0.00,23.4,22.6,00.0,32.3,25.2,08.6,0000.0,0009.30,0004.57,0004.05
2021-12-18 17:04:00,,0830.7,5.02,0.00,23.4,22.6,00.0,32.3,25.2,08.5,0000.0,0009.64,0004.65,0004.10
2021-12-18 17:05:00,,0830.8,5.00,0.00,23.4,22.6,00.0,32.4,25.2,08.5,0000.0,0010.17,0004.75,0004.14
2021-12-18 17:06:00,,0830.7,4.99,0.00,23.4,22.6,00.0,32.4,25.2,08.5,0000.0,0010.33,0004.83,0004.18
2021-12-18 17:07:00,,0830.8,5.02,0.00,23.4,22.6,00.0,32.4,25.2,08.6,0000.0,0010.40,0004.84,0004.22
2021-12-18 17:08:00,,0830.8,4.99,0.00,23.4,22.6,00.0,32.4,25.2,08.6,0000.0,0010.79,0004.87,0004.27
2021-12-18 17:09:00,,0830.8,5.01,0.00,23.4,22.6,00.0,32.4,25.2,08.6,0000.0,0011.29,0004.92,0004.30
2021-12-18 17:10:00,,0830.8,5.00,0.00,23.4,22.6,00.0,32.4,25.3,08.6,0000.0,0011.23,0004.97,0004.34
2021-12-18 17:11:00,,0830.8,5.00,0.00,23.5,22.6,00.0,32.4,25.3,08.6,0000.0,0011.32,0005.00,0004.38
2021-12-18 17:12:00,,0830.8,5.01,0.00,23.5,22.6,00.0,32.4,25.3,08.6,0000.0,0011.74,0005.06,0004.43
2021-12-18 17:13:00,,0830.7,5.00,0.00,23.5,22.6,00.0,32.4,25.2,08.6,0000.0,0012.15,0005.09,0004.47
2021-12-18 17:14:00,,0830.7,5.00,0.00,23.5,22.5,00.0,32.4,25.2,08.6,0000.0,0012.18,0005.12,0004.48
2021-12-18 17:15:00,,0830.6,4.99,0.00,23.4,22.5,00.0,32.4,25.2,08.6,0000.0,0012.05,0005.14,0004.48
2021-12-18 17:16:00,,0830.6,5.01,0.00,23.4,22.5,00.0,32.4,25.1,08.6,0000.0,0011.53,0005.09,0004.49
2021-12-18 17:17:00,,0830.6,4.99,0.00,23.4,22.5,00.0,32.4,25.1,08.6,0000.0,0011.36,0005.03,0004.46
2021-12-18 17:18:00,,0830.6,5.00,0.00,23.4,22.5,00.0,32.4,25.1,08.6,0000.0,0011.30,0005.04,0004.46
2021-12-18 17:19:00,,0830.6,5.00,0.00,23.4,22.5,00.0,32.4,25.1,08.6,0000.0,0010.98,0005.06,0004.44
2021-12-18 17:20:00,,0830.6,5.01,0.00,23.4,22.5,00.0,32.4,25.1,08.6,0000.0,0010.51,0005.06,0004.44
2021-12-18 17:21:00,,0830.6,5.00,0.00,23.4,22.5,00.0,32.4,25.1,08.6,0000.0,0010.86,0005.06,0004.45
2021-12-18 17:22:00,,0830.6,5.00,0.00,23.4,22.5,00.0,32.4,25.1,08.6,0000.0,0010.54,0005.10,0004.46
2021-12-18 17:23:00,,0830.6,5.00,0.00,23.4,22.6,00.0,32.4,25.1,08.5,0000.0,0010.32,0005.08,0004.45
2021-12-18 17:24:00,,0830.6,5.01,0.00,23.4,22.6,00.0,32.4,25.1,08.6,0000.0,0009.90,0005.07,0004.44
2021-12-18 17:25:00,,0830.6,5.02,0.00,23.4,22.6,00.0,32.4,25.2,08.6,0000.0,0009.70,0005.09,0004.44
2021-12-18 17:26:00,,0830.6,4.99,0.00,23.4,22.6,00.0,32.4,25.2,08.6,0000.0,0009.91,0005.13,0004.45
2021-12-18 17:27:00,,0830.6,5.02,0.00,23.4,22.6,00.0,32.4,25.2,08.6,0000.0,0010.48,0005.18,0004.49
2021-12-18 17:28:00,,0830.5,4.99,0.00,23.4,22.6,00.0,32.4,25.2,08.7,0000.0,0010.55,0005.23,0004.55
2021-12-18 17:29:00,,0830.5,5.00,0.00,23.4,22.6,00.0,32.4,25.2,08.7,0000.0,0010.77,0005.24,0004.59
2021-12-18 17:30:00,,0830.4,5.01,0.00,23.4,22.6,00.0,32.4,25.2,08.6,0000.0,0012.01,0005.27,0004.62
2021-12-18 17:31:00,,0830.4,5.00,0.00,23.5,22.7,00.0,32.4,25.2,08.7,0000.0,0012.33,0005.29,0004.65
2021-12-18 17:32:00,,0830.4,4.99,0.00,23.5,22.7,00.0,32.4,25.3,08.7,0000.0,0011.96,0005.30,0004.67
2021-12-18 17:33:00,,0830.4,5.01,0.00,23.5,22.7,00.0,32.4,25.3,08.6,0000.0,0011.79,0005.28,0004.70
2021-12-18 17:34:00,,0830.4,5.00,0.00,23.5,22.7,00.0,32.4,25.3,08.6,0000.0,0011.54,0005.33,0004.72
2021-12-18 17:35:00,,0830.4,4.99,0.00,23.5,22.7,00.0,32.4,25.3,08.6,0000.0,0011.80,0005.38,0004.74
2021-12-18 17:36:00,,0830.4,5.00,0.00,23.5,22.7,00.0,32.4,25.3,08.5,0000.0,0013.02,0005.40,0004.77
2021-12-18 17:37:00,,0830.4,5.00,0.00,23.5,22.7,00.0,32.4,25.3,08.5,0000.0,0012.72,0005.37,0004.80
2021-12-18 17:38:00,,0830.4,5.00,0.00,23.5,22.7,00.0,32.5,25.3,08.5,0000.0,0012.28,0005.37,0004.80
2021-12-18 17:39:00,,0830.4,4.99,0.00,23.5,22.7,00.0,32.5,25.3,08.5,0000.0,0013.16,0005.37,0004.77
2021-12-18 17:40:00,,0830.4,5.01,0.00,23.5,22.8,00.0,32.5,25.4,08.5,0000.0,0013.11,0005.40,0004.77
2021-12-18 17:41:00,,0830.4,4.99,0.00,23.6,22.8,00.0,32.5,25.4,08.5,0000.0,0012.12,0005.41,0004.76
2021-12-18 17:42:00,,0830.4,5.01,0.00,23.6,22.8,00.0,32.5,25.4,08.5,0000.0,0012.03,0005.43,0004.75
2021-12-18 17:43:00,,0830.3,4.99,0.00,23.6,22.8,00.0,32.5,25.4,08.5,0000.0,0012.10,0005.44,0004.74
2021-12-18 17:44:00,,0830.3,5.00,0.00,23.6,22.8,00.0,32.5,25.4,08.5,0000.0,0012.08,0005.45,0004.74
2021-12-18 17:45:00,,0830.3,4.99,0.00,23.6,22.8,00.0,32.5,25.4,08.5,0000.0,0012.22,0005.43,0004.75
2021-12-18 17:46:00,,0830.2,5.01,0.00,23.6,22.8,00.0,32.5,25.4,08.5,0000.0,0012.68,0005.46,0004.77
2021-12-18 17:47:00,,0830.1,4.99,0.00,23.6,22.8,00.0,32.5,25.4,08.5,0000.0,0011.72,0005.50,0004.79
2021-12-18 17:48:00,,0830.1,5.02,0.00,23.6,22.8,00.0,32.5,25.4,08.5,0000.0,0011.89,0005.51,0004.80
2021-12-18 17:49:00,,0830.2,5.00,0.00,23.6,22.8,00.0,32.5,25.4,08.5,0000.0,0012.47,0005.52,0004.81
2021-12-18 17:50:00,,0830.2,4.99,0.00,23.6,22.8,00.0,32.5,25.5,08.5,0000.0,0012.65,0005.54,0004.83
2021-12-18 17:51:00,,0830.1,5.01,0.00,23.6,22.8,00.0,32.6,25.5,08.5,0000.0,0012.56,0005.55,0004.83
2021-12-18 17:52:00,,0830.1,5.00,0.00,23.6,22.8,00.0,32.6,25.5,08.6,0000.0,0012.46,0005.53,0004.84
2021-12-18 17:53:00,,0830.1,4.99,0.00,23.7,22.8,00.0,32.6,25.5,08.5,0000.0,0012.16,0005.52,0004.86
2021-12-18 17:54:00,,0830.1,5.01,0.00,23.7,22.8,00.0,32.6,25.5,08.5,0000.0,0012.03,0005.51,0004.87
2021-12-18 17:55:00,,0830.1,4.99,0.00,23.7,22.9,00.0,32.6,25.5,08.5,0000.0,0012.09,0005.55,0004.88
2021-12-18 17:56:00,,0830.1,5.01,0.00,23.7,22.9,00.0,32.6,25.5,08.5,0000.0,0012.35,0005.57,0004.88
2021-12-18 17:57:00,,0830.1,5.01,0.00,23.7,22.9,00.0,32.6,25.5,08.5,0000.0,0011.76,0005.54,0004.87
2021-12-18 17:58:00,,0830.1,5.00,0.00,23.7,22.9,00.0,32.6,25.5,08.4,0000.0,0011.42,0005.50,0004.83
2021-12-18 17:59:00,,0830.1,4.99,0.00,23.7,22.9,00.0,32.6,25.5,08.4,0000.0,0011.97,0005.49,0004.80
